Location: *
(44.3925°N, 5.4708°E)
Time: 23:36:46
(UTC+00:00)

Cosmos 1461 - Pass Details

Date: 18 September 2019
Orbit: 525 x 643 km, 65.0° (Epoch: 20 October)

Event Time Altitude Azimuth Distance (km) Brightness Sun altitude
Rises 18:06:33 0° 201° (SSW) 2,694 6.5 -4.9°
Reaches altitude 10° 18:08:47 10° 197° (SSW) 1,792 5.6 -5.3°
Maximum altitude 18:12:41 52° 120° (ESE) 661 2.9 -6.0°
Drops below altitude 10° 18:16:32 10° 44° (NE) 1,774 5.1 -6.6°
Sets 18:18:45 0° 39° (NE) 2,665 6.0 -7.0°
